EZY17QZ EGCC-LIPX

Flight info

Callsign EZY17QZ
Flight time 1h 57m
Altitude 35000
Route SANBA N859 HON UL612 VEULE DCT TEPRI UN491 POGZI/N0434F370 DCT GELTA DCT LUVAL DCT SHARA DCT DEVDI DCT RIPUS DCT GERSA DCT SOSON DCT ODINA DCT DESIP DCT LEGLO L615 NEVNI
Aircraft A320/M-SDE2E3FGHIJ1RWXYZ/LB1

Departure

Time 2026-05-04 20:52
Airport Manchester Airport (EGCC)

Arrival

Time 2026-05-04 22:50
Airport Verona Villafranca Valerio Catullo Airport (LIPX)
Time Latitude Longitude Altitude Speed Heading
2026-05-04 20:15 53.36763 -2.28397 255 ft 0 kts 135°
2026-05-04 20:34 53.36769 -2.28409 255 ft 4 kts 135°
2026-05-04 20:34 53.36786 -2.28437 255 ft 3 kts 135°
2026-05-04 20:34 53.36801 -2.28453 255 ft 4 kts 216°
2026-05-04 20:35 53.36819 -2.28422 255 ft 3 kts 225°
2026-05-04 20:35 53.36807 -2.28440 255 ft 4 kts 224°
2026-05-04 20:35 53.36789 -2.28471 255 ft 3 kts 224°
2026-05-04 20:35 53.36786 -2.28476 255 ft 0 kts 224°
2026-05-04 20:37 53.36784 -2.28478 255 ft 1 kts 224°
2026-05-04 20:38 53.36770 -2.28501 255 ft 5 kts 224°
2026-05-04 20:38 53.36736 -2.28558 255 ft 7 kts 224°
2026-05-04 20:38 53.36702 -2.28613 255 ft 6 kts 224°
2026-05-04 20:38 53.36674 -2.28660 255 ft 5 kts 224°
2026-05-04 20:39 53.36670 -2.28665 255 ft 0 kts 224°
2026-05-04 20:40 53.36659 -2.28684 255 ft 5 kts 225°
2026-05-04 20:40 53.36640 -2.28754 255 ft 7 kts 252°
2026-05-04 20:40 53.36607 -2.28793 255 ft 5 kts 180°
2026-05-04 20:41 53.36580 -2.28757 255 ft 5 kts 135°
2026-05-04 20:41 53.36549 -2.28706 255 ft 8 kts 135°
2026-05-04 20:41 53.36502 -2.28630 255 ft 11 kts 135°
2026-05-04 20:41 53.36450 -2.28538 255 ft 10 kts 133°
2026-05-04 20:42 53.36409 -2.28437 255 ft 12 kts 111°
2026-05-04 20:42 53.36362 -2.28313 255 ft 13 kts 135°
2026-05-04 20:42 53.36302 -2.28211 255 ft 12 kts 134°
2026-05-04 20:42 53.36246 -2.28117 255 ft 11 kts 134°
2026-05-04 20:43 53.36195 -2.28032 255 ft 10 kts 135°
2026-05-04 20:43 53.36142 -2.27954 255 ft 11 kts 142°
2026-05-04 20:43 53.36073 -2.27865 255 ft 15 kts 142°
2026-05-04 20:43 53.35991 -2.27759 255 ft 14 kts 144°
2026-05-04 20:44 53.35911 -2.27728 255 ft 0 kts 181°
2026-05-04 20:45 53.35877 -2.27728 255 ft 11 kts 181°
2026-05-04 20:45 53.35797 -2.27703 251 ft 13 kts 137°
2026-05-04 20:45 53.35722 -2.27635 248 ft 13 kts 158°
2026-05-04 20:45 53.35643 -2.27554 246 ft 13 kts 141°
2026-05-04 20:46 53.35617 -2.27470 245 ft 12 kts 84°
2026-05-04 20:46 53.35658 -2.27374 251 ft 3 kts 50°
2026-05-04 20:46 53.35694 -2.27301 255 ft 13 kts 50°
2026-05-04 20:46 53.35753 -2.27181 255 ft 13 kts 51°
2026-05-04 20:47 53.35804 -2.27069 255 ft 11 kts 57°
2026-05-04 20:47 53.35845 -2.26959 256 ft 11 kts 56°
2026-05-04 20:47 53.35888 -2.26862 256 ft 10 kts 53°
2026-05-04 20:47 53.35923 -2.26775 256 ft 8 kts 56°
2026-05-04 20:48 53.35945 -2.26726 256 ft 9 kts 50°
2026-05-04 20:48 53.35993 -2.26626 256 ft 14 kts 51°
2026-05-04 20:48 53.36084 -2.26437 256 ft 18 kts 51°
2026-05-04 20:48 53.36166 -2.26275 255 ft 15 kts 42°
2026-05-04 20:49 53.36239 -2.26161 255 ft 16 kts 51°
2026-05-04 20:49 53.36271 -2.26083 255 ft 8 kts 69°
2026-05-04 20:49 53.36269 -2.26040 255 ft 1 kts 97°
2026-05-04 20:49 53.36269 -2.26039 255 ft 0 kts 97°
2026-05-04 20:50 53.36268 -2.26014 255 ft 7 kts 96°
2026-05-04 20:50 53.36286 -2.25907 255 ft 8 kts 72°
2026-05-04 20:50 53.36286 -2.25828 257 ft 6 kts 110°
2026-05-04 20:50 53.36266 -2.25779 260 ft 8 kts 133°
2026-05-04 20:51 53.36235 -2.25738 261 ft 4 kts 154°
2026-05-04 20:51 53.36208 -2.25765 260 ft 6 kts 233°
2026-05-04 20:51 53.36172 -2.25843 259 ft 14 kts 231°
2026-05-04 20:51 53.35982 -2.26238 262 ft 79 kts 231°
2026-05-04 20:52 53.35502 -2.27232 249 ft 139 kts 231°
2026-05-04 20:52 53.34556 -2.29159 686 ft 167 kts 234°
2026-05-04 20:52 53.34057 -2.30188 1172 ft 170 kts 233°
2026-05-04 20:52 53.33297 -2.31794 1672 ft 186 kts 235°
2026-05-04 20:53 53.32502 -2.33613 1967 ft 207 kts 246°
2026-05-04 20:53 53.32328 -2.36040 2319 ft 224 kts 284°
2026-05-04 20:53 53.32753 -2.38592 3088 ft 230 kts 287°
2026-05-04 20:53 53.32946 -2.41249 3952 ft 236 kts 260°
2026-05-04 20:54 53.32160 -2.43642 4806 ft 243 kts 222°
2026-05-04 20:54 53.30636 -2.44897 5646 ft 253 kts 197°
2026-05-04 20:54 53.28840 -2.45448 6244 ft 269 kts 186°
2026-05-04 20:54 53.26964 -2.45068 7032 ft 279 kts 159°
2026-05-04 20:55 53.25264 -2.43452 7863 ft 284 kts 148°
2026-05-04 20:55 53.23581 -2.41765 8721 ft 288 kts 152°
2026-05-04 20:55 53.21809 -2.40158 9576 ft 292 kts 153°
2026-05-04 20:55 53.19988 -2.38586 10354 ft 299 kts 154°
2026-05-04 20:56 53.18063 -2.36950 10638 ft 322 kts 154°
2026-05-04 20:56 53.16024 -2.35216 11199 ft 333 kts 154°
2026-05-04 20:56 53.13945 -2.33434 11971 ft 338 kts 154°
2026-05-04 20:56 53.11852 -2.31624 12794 ft 341 kts 154°
2026-05-04 20:57 53.09767 -2.29807 13574 ft 344 kts 154°
2026-05-04 20:57 53.07639 -2.27945 14303 ft 347 kts 154°
2026-05-04 20:57 53.05486 -2.26064 14648 ft 350 kts 154°
2026-05-04 20:57 53.03352 -2.24174 14894 ft 345 kts 153°
2026-05-04 20:58 53.01244 -2.22287 15018 ft 344 kts 153°
2026-05-04 20:58 52.99130 -2.20405 15055 ft 346 kts 153°
2026-05-04 20:58 52.97073 -2.18589 15054 ft 325 kts 154°
2026-05-04 20:58 52.95050 -2.16808 15058 ft 334 kts 153°
2026-05-04 20:59 52.93011 -2.15019 15063 ft 340 kts 154°
2026-05-04 20:59 52.90903 -2.13189 15060 ft 340 kts 154°
2026-05-04 20:59 52.88809 -2.11403 15061 ft 338 kts 154°
2026-05-04 20:59 52.86710 -2.09604 15060 ft 341 kts 154°
2026-05-04 21:00 52.84617 -2.07789 15059 ft 336 kts 154°
2026-05-04 21:00 52.82597 -2.06010 15063 ft 323 kts 153°
2026-05-04 21:00 52.80614 -2.04275 15064 ft 325 kts 154°
2026-05-04 21:00 52.78559 -2.02544 15113 ft 341 kts 155°
2026-05-04 21:01 52.76404 -2.00780 15606 ft 350 kts 155°
2026-05-04 21:01 52.74238 -1.99003 16202 ft 355 kts 155°
2026-05-04 21:01 52.72021 -1.97160 16859 ft 359 kts 154°
2026-05-04 21:01 52.69789 -1.95280 17538 ft 362 kts 154°
2026-05-04 21:02 52.67539 -1.93369 18207 ft 365 kts 154°
2026-05-04 21:02 52.65277 -1.91441 18795 ft 368 kts 154°
2026-05-04 21:02 52.62991 -1.89492 19357 ft 371 kts 155°
2026-05-04 21:02 52.60693 -1.87534 19950 ft 373 kts 155°
2026-05-04 21:03 52.58382 -1.85566 20562 ft 376 kts 155°
2026-05-04 21:03 52.56082 -1.83611 21128 ft 378 kts 155°
2026-05-04 21:03 52.53739 -1.81619 21713 ft 380 kts 156°
2026-05-04 21:03 52.51381 -1.79621 22263 ft 383 kts 156°
2026-05-04 21:04 52.49014 -1.77623 22857 ft 384 kts 156°
2026-05-04 21:04 52.46630 -1.75614 23445 ft 386 kts 156°
2026-05-04 21:04 52.44230 -1.73591 23953 ft 389 kts 156°
2026-05-04 21:04 52.41820 -1.71561 24400 ft 391 kts 156°
2026-05-04 21:05 52.39391 -1.69513 24856 ft 394 kts 156°
2026-05-04 21:05 52.36980 -1.67483 25291 ft 396 kts 155°
2026-05-04 21:05 52.34518 -1.65412 25723 ft 399 kts 155°
2026-05-04 21:05 52.32040 -1.63355 26146 ft 401 kts 155°
2026-05-04 21:06 52.29541 -1.61303 26560 ft 403 kts 155°
2026-05-04 21:06 52.27021 -1.59245 26956 ft 406 kts 155°
2026-05-04 21:06 52.24496 -1.57185 27383 ft 407 kts 155°
2026-05-04 21:06 52.21952 -1.55110 27798 ft 409 kts 155°
2026-05-04 21:07 52.19400 -1.53034 28192 ft 412 kts 155°
2026-05-04 21:07 52.16826 -1.50940 28579 ft 414 kts 155°
2026-05-04 21:07 52.14276 -1.48861 28956 ft 417 kts 155°
2026-05-04 21:07 52.11677 -1.46741 29329 ft 419 kts 155°
2026-05-04 21:08 52.09065 -1.44615 29688 ft 422 kts 155°
2026-05-04 21:08 52.06433 -1.42479 30061 ft 424 kts 155°
2026-05-04 21:08 52.03785 -1.40332 30387 ft 426 kts 155°
2026-05-04 21:08 52.01136 -1.38184 30774 ft 425 kts 155°
2026-05-04 21:09 51.98488 -1.36040 31127 ft 426 kts 155°
2026-05-04 21:09 51.95835 -1.33894 31439 ft 427 kts 155°
2026-05-04 21:09 51.93183 -1.31749 31838 ft 426 kts 155°
2026-05-04 21:09 51.90572 -1.29639 32230 ft 425 kts 155°
2026-05-04 21:10 51.87924 -1.27507 32615 ft 424 kts 155°
2026-05-04 21:10 51.85283 -1.25389 32994 ft 424 kts 155°
2026-05-04 21:10 51.82642 -1.23273 33364 ft 424 kts 155°
2026-05-04 21:10 51.80001 -1.21161 33752 ft 423 kts 154°
2026-05-04 21:11 51.77364 -1.19055 34090 ft 423 kts 154°
2026-05-04 21:11 51.74722 -1.16948 34373 ft 424 kts 154°
2026-05-04 21:11 51.72077 -1.14840 34661 ft 424 kts 154°
2026-05-04 21:11 51.69431 -1.12730 34933 ft 425 kts 154°
2026-05-04 21:12 51.66775 -1.10613 35049 ft 426 kts 154°
2026-05-04 21:12 51.64165 -1.08537 35061 ft 423 kts 154°
2026-05-04 21:12 51.59142 -1.03694 35060 ft 422 kts 145°
2026-05-04 21:13 51.54365 -0.98225 35051 ft 421 kts 146°
2026-05-04 21:13 51.49583 -0.92763 35041 ft 423 kts 146°
2026-05-04 21:14 51.44714 -0.87615 35051 ft 421 kts 155°
2026-05-04 21:14 51.39309 -0.84047 35047 ft 420 kts 160°
2026-05-04 21:15 51.33876 -0.80580 35046 ft 420 kts 159°
2026-05-04 21:15 51.28453 -0.77112 35032 ft 419 kts 160°
2026-05-04 21:16 51.23036 -0.73665 35042 ft 419 kts 160°
2026-05-04 21:16 51.17660 -0.70259 35035 ft 418 kts 160°
2026-05-04 21:17 51.12251 -0.66833 35035 ft 418 kts 160°
2026-05-04 21:17 51.06845 -0.63407 35039 ft 418 kts 158°
2026-05-04 21:18 51.01824 -0.58714 35031 ft 420 kts 148°
2026-05-04 21:18 50.96980 -0.53514 35033 ft 421 kts 148°
2026-05-04 21:19 50.92154 -0.48367 35028 ft 421 kts 148°
2026-05-04 21:19 50.87292 -0.43204 35035 ft 421 kts 149°
2026-05-04 21:20 50.82439 -0.38059 35032 ft 420 kts 149°
2026-05-04 21:20 50.77589 -0.32930 35043 ft 419 kts 149°
2026-05-04 21:21 50.72777 -0.27863 35036 ft 418 kts 149°
2026-05-04 21:21 50.67935 -0.22779 35035 ft 418 kts 149°
2026-05-04 21:22 50.63094 -0.17704 35042 ft 417 kts 149°
2026-05-04 21:22 50.58269 -0.12652 35049 ft 416 kts 149°
2026-05-04 21:23 50.53491 -0.07664 35045 ft 414 kts 149°
2026-05-04 21:23 50.48687 -0.02674 35043 ft 413 kts 150°
2026-05-04 21:24 50.43890 0.02301 35024 ft 414 kts 150°
2026-05-04 21:24 50.39084 0.07275 35025 ft 414 kts 150°
2026-05-04 21:25 50.34283 0.12239 35028 ft 413 kts 150°
2026-05-04 21:25 50.29519 0.17160 35028 ft 413 kts 150°
2026-05-04 21:26 50.24719 0.22087 35024 ft 413 kts 150°
2026-05-04 21:26 50.19922 0.27000 35025 ft 412 kts 150°
2026-05-04 21:27 50.15136 0.31925 35036 ft 411 kts 150°
2026-05-04 21:27 50.10400 0.36803 35030 ft 410 kts 150°
2026-05-04 21:28 50.05634 0.41681 35025 ft 410 kts 150°
2026-05-04 21:28 50.00873 0.46540 35008 ft 409 kts 150°
2026-05-04 21:29 49.96108 0.51393 34995 ft 410 kts 151°
2026-05-04 21:29 49.91372 0.56207 35003 ft 410 kts 151°
2026-05-04 21:30 49.86618 0.61082 35000 ft 411 kts 147°
2026-05-04 21:30 49.82516 0.67353 35001 ft 417 kts 137°
2026-05-04 21:31 49.76657 0.77313 34993 ft 417 kts 137°
2026-05-04 21:32 49.72762 0.83875 34993 ft 417 kts 137°
2026-05-04 21:32 49.68844 0.90468 34978 ft 416 kts 137°
2026-05-04 21:33 49.64933 0.97061 34985 ft 417 kts 137°
2026-05-04 21:33 49.61007 1.03649 34987 ft 417 kts 137°
2026-05-04 21:34 49.57072 1.10224 34988 ft 417 kts 137°
2026-05-04 21:34 49.53213 1.16824 34994 ft 421 kts 130°
2026-05-04 21:34 49.51815 1.20822 34993 ft 429 kts 116°
2026-05-04 21:35 49.50746 1.25118 34994 ft 430 kts 116°
2026-05-04 21:35 49.48654 1.33745 34994 ft 430 kts 115°
2026-05-04 21:36 49.46564 1.42377 34950 ft 431 kts 116°
2026-05-04 21:36 49.44458 1.50962 34951 ft 432 kts 116°
2026-05-04 21:37 49.42325 1.59600 34949 ft 433 kts 116°
2026-05-04 21:37 49.40186 1.68253 34953 ft 433 kts 116°
2026-05-04 21:38 49.38038 1.76893 34956 ft 433 kts 116°
2026-05-04 21:38 49.35874 1.85526 35123 ft 440 kts 116°
2026-05-04 21:38 49.34772 1.89918 35388 ft 442 kts 115°
2026-05-04 21:39 49.33672 1.94314 35660 ft 442 kts 115°
2026-05-04 21:39 49.32572 1.98710 35943 ft 442 kts 115°
2026-05-04 21:39 49.31472 2.03104 36217 ft 442 kts 115°
2026-05-04 21:39 49.30365 2.07499 36483 ft 442 kts 115°
2026-05-04 21:40 49.29259 2.11883 36747 ft 442 kts 115°
2026-05-04 21:40 49.28147 2.16278 36934 ft 443 kts 115°
2026-05-04 21:40 49.27030 2.20672 36972 ft 443 kts 115°
2026-05-04 21:41 49.24807 2.29399 36964 ft 444 kts 115°
2026-05-04 21:41 49.22559 2.38197 36962 ft 444 kts 115°
2026-05-04 21:42 49.20314 2.46989 36953 ft 444 kts 115°
2026-05-04 21:42 49.18070 2.55719 36951 ft 444 kts 115°
2026-05-04 21:43 49.15806 2.64489 36950 ft 444 kts 115°
2026-05-04 21:43 49.13528 2.73266 36942 ft 444 kts 115°
2026-05-04 21:44 49.11245 2.82035 36961 ft 445 kts 115°
2026-05-04 21:44 49.08957 2.90813 36966 ft 445 kts 115°
2026-05-04 21:45 49.06670 2.99530 36953 ft 445 kts 116°
2026-05-04 21:45 49.04360 3.08279 36952 ft 446 kts 116°
2026-05-04 21:46 49.02031 3.17022 36953 ft 445 kts 116°
2026-05-04 21:46 48.99681 3.25752 36960 ft 445 kts 116°
2026-05-04 21:47 48.97346 3.34410 36968 ft 445 kts 116°
2026-05-04 21:47 48.95003 3.43124 36975 ft 445 kts 116°
2026-05-04 21:48 48.92651 3.51838 36958 ft 445 kts 116°
2026-05-04 21:48 48.90283 3.60524 36963 ft 445 kts 116°
2026-05-04 21:49 48.87924 3.69147 36969 ft 445 kts 116°
2026-05-04 21:49 48.85550 3.77815 36974 ft 445 kts 116°
2026-05-04 21:50 48.83169 3.86481 36980 ft 445 kts 116°
2026-05-04 21:50 48.80777 3.95128 36980 ft 444 kts 116°
2026-05-04 21:51 48.78400 4.03713 36980 ft 444 kts 116°
2026-05-04 21:51 48.75997 4.12340 36981 ft 444 kts 116°
2026-05-04 21:52 48.73591 4.20970 36982 ft 444 kts 116°
2026-05-04 21:52 48.71178 4.29576 36981 ft 444 kts 117°
2026-05-04 21:53 48.68775 4.38120 36965 ft 444 kts 117°
2026-05-04 21:53 48.66352 4.46720 36968 ft 444 kts 117°
2026-05-04 21:54 48.63921 4.55304 36971 ft 444 kts 117°
2026-05-04 21:54 48.61486 4.63877 36972 ft 444 kts 117°
2026-05-04 21:55 48.59063 4.72384 36977 ft 444 kts 117°
2026-05-04 21:55 48.56614 4.80937 36962 ft 444 kts 117°
2026-05-04 21:56 48.54159 4.89482 36958 ft 444 kts 117°
2026-05-04 21:56 48.51703 4.98014 36963 ft 443 kts 117°
2026-05-04 21:57 48.49257 5.06477 36971 ft 443 kts 117°
2026-05-04 21:57 48.46777 5.14987 36976 ft 443 kts 117°
2026-05-04 21:58 48.44296 5.23484 36973 ft 443 kts 117°
2026-05-04 21:58 48.41818 5.31976 36995 ft 443 kts 117°
2026-05-04 21:59 48.39352 5.40399 36996 ft 443 kts 117°
2026-05-04 21:59 48.36862 5.48868 37002 ft 443 kts 117°
2026-05-04 22:00 48.34298 5.57271 36995 ft 439 kts 125°
2026-05-04 22:00 48.32463 5.60864 36984 ft 431 kts 139°
2026-05-04 22:00 48.30328 5.64014 36979 ft 430 kts 140°
2026-05-04 22:01 48.26047 5.70220 36975 ft 431 kts 140°
2026-05-04 22:01 48.21716 5.76451 36974 ft 432 kts 140°
2026-05-04 22:02 48.17382 5.82692 36978 ft 432 kts 140°
2026-05-04 22:02 48.13045 5.88937 36975 ft 432 kts 140°
2026-05-04 22:03 48.08736 5.95130 36984 ft 433 kts 140°
2026-05-04 22:03 48.04389 6.01360 36959 ft 433 kts 140°
2026-05-04 22:04 48.00028 6.07588 36968 ft 434 kts 140°
2026-05-04 22:04 47.95688 6.13766 36977 ft 434 kts 140°
2026-05-04 22:05 47.91313 6.19973 36983 ft 434 kts 141°
2026-05-04 22:05 47.86936 6.26179 36984 ft 434 kts 141°
2026-05-04 22:06 47.82559 6.32373 36980 ft 434 kts 141°
2026-05-04 22:06 47.78212 6.38512 36955 ft 434 kts 141°
2026-05-04 22:07 47.73857 6.44709 36968 ft 433 kts 140°
2026-05-04 22:07 47.69516 6.50915 36978 ft 433 kts 140°
2026-05-04 22:08 47.65169 6.57104 37004 ft 433 kts 140°
2026-05-04 22:08 47.60839 6.63227 36997 ft 433 kts 141°
2026-05-04 22:09 47.56487 6.69367 37007 ft 432 kts 141°
2026-05-04 22:09 47.52134 6.75498 36993 ft 432 kts 141°
2026-05-04 22:10 47.47774 6.81632 36996 ft 432 kts 141°
2026-05-04 22:10 47.43407 6.87741 36995 ft 433 kts 141°
2026-05-04 22:11 47.39060 6.93804 37002 ft 433 kts 141°
2026-05-04 22:11 47.34687 6.99904 37001 ft 433 kts 141°
2026-05-04 22:12 47.30312 7.05997 36978 ft 432 kts 141°
2026-05-04 22:12 47.25944 7.12073 36985 ft 432 kts 141°
2026-05-04 22:13 47.21595 7.18095 36990 ft 432 kts 141°
2026-05-04 22:13 47.17214 7.24151 36995 ft 432 kts 141°
2026-05-04 22:14 47.12832 7.30191 36994 ft 432 kts 141°
2026-05-04 22:14 47.08452 7.36210 37005 ft 432 kts 141°
2026-05-04 22:15 47.04096 7.42185 36981 ft 431 kts 141°
2026-05-04 22:15 46.99708 7.48189 36985 ft 431 kts 141°
2026-05-04 22:16 46.95317 7.54182 37002 ft 432 kts 141°
2026-05-04 22:16 46.90926 7.60166 36996 ft 431 kts 141°
2026-05-04 22:17 46.86562 7.66102 36995 ft 431 kts 141°
2026-05-04 22:17 46.82166 7.72062 36998 ft 431 kts 141°
2026-05-04 22:18 46.77769 7.78009 37001 ft 431 kts 141°
2026-05-04 22:18 46.73368 7.83945 37001 ft 431 kts 141°
2026-05-04 22:19 46.68995 7.89827 37002 ft 431 kts 141°
2026-05-04 22:19 46.64591 7.95752 36999 ft 431 kts 141°
2026-05-04 22:20 46.60176 8.01671 36998 ft 431 kts 141°
2026-05-04 22:20 46.55761 8.07578 37003 ft 432 kts 141°
2026-05-04 22:21 46.51365 8.13447 36999 ft 432 kts 141°
2026-05-04 22:21 46.46936 8.19346 37017 ft 432 kts 141°
2026-05-04 22:22 46.42500 8.25235 37064 ft 433 kts 141°
2026-05-04 22:22 46.38045 8.31103 37079 ft 433 kts 142°
2026-05-04 22:23 46.33580 8.36852 37098 ft 432 kts 142°
2026-05-04 22:23 46.29077 8.42615 37081 ft 432 kts 142°
2026-05-04 22:24 46.24580 8.48391 37078 ft 433 kts 142°
2026-05-04 22:24 46.20084 8.54174 37078 ft 433 kts 142°
2026-05-04 22:25 46.15607 8.59907 37084 ft 433 kts 142°
2026-05-04 22:25 46.11092 8.65659 37080 ft 433 kts 143°
2026-05-04 22:26 46.06255 8.70733 37081 ft 430 kts 149°
2026-05-04 22:26 46.01370 8.75689 37060 ft 430 kts 148°
2026-05-04 22:27 45.96477 8.80638 37069 ft 430 kts 149°
2026-05-04 22:27 45.91607 8.85541 37081 ft 430 kts 149°
2026-05-04 22:28 45.86706 8.90467 37083 ft 430 kts 149°
2026-05-04 22:28 45.81801 8.95388 37080 ft 430 kts 149°
2026-05-04 22:29 45.76893 9.00301 36737 ft 431 kts 149°
2026-05-04 22:29 45.74466 9.02724 36477 ft 431 kts 149°
2026-05-04 22:29 45.72009 9.05175 36192 ft 431 kts 149°
2026-05-04 22:29 45.69636 9.07821 35946 ft 436 kts 140°
2026-05-04 22:30 45.67621 9.11069 35503 ft 439 kts 129°
2026-05-04 22:30 45.66084 9.14859 34958 ft 444 kts 117°
2026-05-04 22:30 45.65097 9.19060 34376 ft 450 kts 105°
2026-05-04 22:30 45.64705 9.23518 33757 ft 455 kts 93°
2026-05-04 22:31 45.64740 9.27983 33166 ft 455 kts 91°
2026-05-04 22:31 45.64784 9.32498 32542 ft 455 kts 92°
2026-05-04 22:31 45.64818 9.37028 31914 ft 456 kts 92°
2026-05-04 22:31 45.64845 9.41565 31381 ft 457 kts 92°
2026-05-04 22:32 45.64870 9.46119 30726 ft 459 kts 92°
2026-05-04 22:32 45.64895 9.50683 30023 ft 461 kts 92°
2026-05-04 22:32 45.64922 9.55260 29307 ft 461 kts 92°
2026-05-04 22:32 45.64947 9.59839 28529 ft 459 kts 92°
2026-05-04 22:33 45.64971 9.64337 27868 ft 458 kts 92°
2026-05-04 22:33 45.64995 9.68880 27206 ft 457 kts 92°
2026-05-04 22:33 45.65019 9.73407 26542 ft 455 kts 92°
2026-05-04 22:33 45.65041 9.77920 25894 ft 453 kts 92°
2026-05-04 22:34 45.65048 9.82409 25267 ft 450 kts 92°
2026-05-04 22:34 45.65039 9.86869 24668 ft 447 kts 92°
2026-05-04 22:34 45.65020 9.91301 24062 ft 445 kts 93°
2026-05-04 22:34 45.64999 9.95706 23455 ft 442 kts 93°
2026-05-04 22:35 45.64978 10.00015 22870 ft 437 kts 93°
2026-05-04 22:35 45.64956 10.04317 22366 ft 430 kts 93°
2026-05-04 22:35 45.64935 10.08558 21846 ft 424 kts 92°
2026-05-04 22:35 45.64915 10.12749 21373 ft 418 kts 92°
2026-05-04 22:36 45.64901 10.16864 21080 ft 408 kts 92°
2026-05-04 22:36 45.64895 10.20842 20944 ft 394 kts 92°
2026-05-04 22:36 45.64892 10.24692 20805 ft 381 kts 92°
2026-05-04 22:36 45.64887 10.28411 20680 ft 369 kts 92°
2026-05-04 22:37 45.64880 10.31986 20467 ft 359 kts 92°
2026-05-04 22:37 45.64832 10.35507 19830 ft 352 kts 98°
2026-05-04 22:37 45.64310 10.38869 19186 ft 343 kts 113°
2026-05-04 22:37 45.63242 10.41868 18540 ft 336 kts 127°
2026-05-04 22:38 45.61728 10.44358 17817 ft 329 kts 141°
2026-05-04 22:38 45.59888 10.46233 17130 ft 323 kts 153°
2026-05-04 22:38 45.57939 10.47794 16442 ft 320 kts 153°
2026-05-04 22:38 45.56040 10.49324 15887 ft 314 kts 153°
2026-05-04 22:39 45.54159 10.50844 15440 ft 310 kts 153°
2026-05-04 22:39 45.52277 10.52363 15010 ft 312 kts 153°
2026-05-04 22:39 45.50386 10.53884 14689 ft 310 kts 153°
2026-05-04 22:39 45.48509 10.55391 14226 ft 307 kts 152°
2026-05-04 22:40 45.46664 10.56871 13720 ft 301 kts 152°
2026-05-04 22:40 45.44862 10.58315 13265 ft 293 kts 152°
2026-05-04 22:40 45.43115 10.59713 12840 ft 283 kts 152°
2026-05-04 22:40 45.41413 10.61072 12403 ft 288 kts 152°
2026-05-04 22:41 45.39648 10.62477 12020 ft 290 kts 152°
2026-05-04 22:41 45.37862 10.63756 11417 ft 285 kts 163°
2026-05-04 22:41 45.35935 10.64137 10819 ft 279 kts 185°
2026-05-04 22:41 45.34081 10.63423 10220 ft 277 kts 206°
2026-05-04 22:42 45.32517 10.61864 9578 ft 276 kts 223°
2026-05-04 22:42 45.31208 10.59888 9044 ft 269 kts 225°
2026-05-04 22:42 45.29971 10.58037 8911 ft 248 kts 224°
2026-05-04 22:42 45.28821 10.56361 8680 ft 235 kts 224°
2026-05-04 22:43 45.27682 10.54748 8281 ft 228 kts 219°
2026-05-04 22:43 45.26300 10.53771 7914 ft 223 kts 187°
2026-05-04 22:43 45.24780 10.53980 7606 ft 221 kts 157°
2026-05-04 22:43 45.23593 10.55318 7296 ft 223 kts 123°
2026-05-04 22:44 45.23138 10.57399 6987 ft 226 kts 90°
2026-05-04 22:44 45.23479 10.59580 6651 ft 228 kts 72°
2026-05-04 22:44 45.24041 10.61632 6465 ft 217 kts 69°
2026-05-04 22:44 45.24589 10.63500 6296 ft 201 kts 70°
2026-05-04 22:45 45.25126 10.65304 5900 ft 197 kts 69°
2026-05-04 22:45 45.26169 10.68843 5003 ft 191 kts 69°
2026-05-04 22:45 45.26827 10.70454 4521 ft 190 kts 48°
2026-05-04 22:46 45.27758 10.71792 3983 ft 191 kts 45°
2026-05-04 22:46 45.28694 10.73118 3517 ft 189 kts 44°
2026-05-04 22:46 45.29618 10.74431 3044 ft 187 kts 44°
2026-05-04 22:46 45.30511 10.75721 2590 ft 184 kts 44°
2026-05-04 22:47 45.31396 10.77009 2239 ft 178 kts 44°
2026-05-04 22:47 45.32246 10.78231 2109 ft 171 kts 43°
2026-05-04 22:47 45.33074 10.79416 1840 ft 166 kts 44°
2026-05-04 22:47 45.33855 10.80553 1660 ft 156 kts 43°
2026-05-04 22:48 45.34599 10.81641 1406 ft 152 kts 43°
2026-05-04 22:48 45.35335 10.82701 1184 ft 150 kts 42°
2026-05-04 22:48 45.36067 10.83764 1026 ft 150 kts 44°
2026-05-04 22:48 45.36785 10.84816 839 ft 149 kts 44°
2026-05-04 22:49 45.37509 10.85853 626 ft 146 kts 45°
2026-05-04 22:49 45.38216 10.86885 427 ft 145 kts 45°
2026-05-04 22:49 45.38923 10.87910 262 ft 144 kts 45°
2026-05-04 22:49 45.39571 10.88854 239 ft 114 kts 46°
2026-05-04 22:50 45.40025 10.89517 244 ft 79 kts 45°
2026-05-04 22:50 45.40318 10.89943 247 ft 48 kts 45°
2026-05-04 22:50 45.40517 10.90232 246 ft 30 kts 46°
2026-05-04 22:50 45.40600 10.90386 247 ft 15 kts 71°
2026-05-04 22:51 45.40624 10.90516 247 ft 10 kts 77°
2026-05-04 22:51 45.40630 10.90632 243 ft 12 kts 120°
2026-05-04 22:51 45.40577 10.90639 242 ft 5 kts 220°
2026-05-04 22:51 45.40556 10.90607 242 ft 4 kts 227°
2026-05-04 22:52 45.40540 10.90583 242 ft 3 kts 225°
2026-05-04 22:52 45.40523 10.90560 242 ft 3 kts 225°
2026-05-04 22:52 45.40508 10.90539 242 ft 3 kts 225°
2026-05-04 22:52 45.40490 10.90513 242 ft 8 kts 225°
2026-05-04 22:53 45.40437 10.90436 242 ft 13 kts 225°
2026-05-04 22:53 45.40368 10.90335 242 ft 14 kts 226°
2026-05-04 22:53 45.40306 10.90311 242 ft 10 kts 133°
2026-05-04 22:53 45.40265 10.90368 242 ft 1 kts 136°
2026-05-04 22:54 45.40264 10.90370 242 ft 0 kts 136°
2026-05-04 22:54 45.40260 10.90375 242 ft 1 kts 136°
2026-05-04 22:54 45.40249 10.90390 242 ft 4 kts 136°
2026-05-04 22:54 45.40227 10.90405 242 ft 3 kts 164°
2026-05-04 22:55 45.40205 10.90405 242 ft 3 kts 182°
2026-05-04 22:55 45.40186 10.90406 242 ft 3 kts 179°
2026-05-04 22:55 45.40172 10.90405 242 ft 0 kts 180°